GW1838 Weather Reports


Display with metric or nautical units.
time (UTC)temp
F
wind
direction
speed
MPH
gust
MPH
rain 1hr
in
rain 24hr
in
rain mn
in
humidity
%
barometer
mb
20260904022305 80 262 2.0 3.0 0.00 1.09 1.09 83 1012.1
20260904020804 80 265 2.0 3.0 0.00 1.09 1.09 83 1012.4
20260904014304 81 266 1.0 5.0 0.00 1.09 1.09 82 1012.4
20260904013804 81 256 2.0 5.0 0.00 1.09 1.09 82 1012.4
20260904012306 81 252 3.0 6.0 0.00 1.09 1.09 82 1012.3
20260904010804 81 243 3.0 9.0 0.00 1.09 1.09 83 1012.3
20260904010304 81 242 3.0 6.0 0.00 1.09 1.09 83 1012.4
20260904005804 81 264 3.0 5.0 0.00 1.09 1.09 83 1012.4
20260904004804 81 257 2.0 5.0 0.00 1.09 1.09 83 1012.5
20260904004305 81 265 2.0 5.0 0.00 1.09 1.09 83 1012.5
20260904002306 82 256 2.0 5.0 0.00 1.09 1.09 82 1012.2
20260904000805 82 255 2.0 3.0 0.00 1.09 1.09 81 1012.1
20260903235805 83 266 2.0 5.0 0.00 1.09 1.09 80 1011.9
20260903233805 83 271 2.0 3.0 0.00 1.09 1.09 78 1011.7
20260903233305 84 268 2.0 3.0 0.00 1.09 1.09 77 1011.6
20260903231805 85 277 1.0 3.0 0.00 1.09 1.09 76 1011.8
20260903231305 85 277 1.0 3.0 0.00 1.09 1.09 75 1011.6
20260903225805 87 271 2.0 6.0 0.00 1.09 1.09 72 1011.4
20260903224804 87 280 1.0 3.0 0.00 1.09 1.09 73 1011.3
20260903224305 87 286 1.0 3.0 0.00 1.09 1.09 73 1011.3
20260903222805 87 270 2.0 6.0 0.00 1.09 1.09 72 1011.3
20260903221304 88 271 3.0 6.0 0.00 1.09 1.09 71 1011.3
20260903220805 88 268 3.0 9.0 0.00 1.09 1.09 70 1011.3
20260903220306 88 265 3.0 7.0 0.00 1.09 1.09 70 1011.3
20260903215804 88 278 5.0 9.0 0.00 1.09 1.09 68 1011.4
20260903213805 89 257 4.0 9.0 0.00 1.09 1.09 66 1011.0
20260903213305 89 250 3.0 6.0 0.00 1.09 1.09 67 1011.0
20260903212805 90 271 4.0 10.0 0.00 1.09 1.09 67 1011.1
20260903212306 89 252 3.0 6.0 0.00 1.09 1.09 67 1011.1
20260903211805 89 256 3.0 9.0 0.00 1.09 1.09 67 1011.1
20260903211305 89 266 3.0 6.0 0.00 1.09 1.09 68 1011.2
20260903210805 89 259 3.0 9.0 0.00 1.09 1.09 67 1011.1
20260903205806 89 260 3.0 6.0 0.00 1.09 1.09 68 1011.2
20260903205306 89 241 3.0 7.0 0.00 1.09 1.09 69 1011.2
20260903195805 90 272 2.0 7.0 0.00 1.09 1.09 67 1011.7
20260903192805 90 253 3.0 7.0 0.00 1.09 1.09 67 1012.0
20260903191804 90 252 4.0 8.0 0.00 1.09 1.09 67 1012.1
20260903191304 90 247 5.0 9.0 0.00 1.09 1.09 65 1012.1
20260903190804 90 251 4.0 7.0 0.00 1.09 1.09 66 1012.1
20260903185804 90 274 3.0 7.0 0.00 1.09 1.09 66 1012.3
20260903184305 87 270 3.0 6.0 0.00 1.09 1.09 74 1012.3
20260903182805 87 236 5.0 12.0 0.00 1.09 1.09 73 1012.5
20260903182306 87 248 7.0 13.0 0.00 1.09 1.09 73 1012.5
20260903181804 87 226 5.0 12.0 0.00 1.09 1.09 73 1012.6
20260903180805 88 240 6.0 12.0 0.00 1.09 1.09 71 1012.8
20260903175805 88 243 3.0 9.0 0.00 1.09 1.09 71 1012.9
20260903174304 89 237 3.0 7.0 0.00 1.09 1.09 70 1013.2
20260903173805 88 249 3.0 9.0 0.00 1.09 1.09 70 1013.3
20260903173304 88 260 3.0 10.0 0.00 1.09 1.09 72 1013.5
20260903172805 87 266 4.0 10.0 0.00 1.09 1.09 73 1013.6
20260903171305 87 253 5.0 7.0 0.00 1.09 1.09 74 1013.8
20260903165306 85 252 5.0 8.0 0.00 1.09 1.09 74 1014.2
20260903164305 85 262 3.0 8.0 0.00 1.09 1.09 75 1014.1
20260903163805 84 254 2.0 7.0 0.00 1.09 1.09 76 1014.0
20260903162306 84 244 3.0 8.0 0.00 1.09 1.09 75 1014.2
20260903161805 84 255 4.0 9.0 0.00 1.09 1.09 75 1014.2
20260903160304 85 244 5.0 9.0 0.00 1.09 1.09 75 1014.2
20260903155805 85 247 5.0 10.0 0.00 1.09 1.09 74 1014.3
20260903155306 85 254 3.0 7.0 0.00 1.09 1.09 74 1014.3
20260903154804 85 266 3.0 7.0 0.00 1.09 1.09 75 1014.4
20260903154304 84 259 2.0 7.0 0.00 1.09 1.09 75 1014.3
20260903152306 83 245 5.0 12.0 0.00 1.09 1.09 76 1014.3
20260903151804 82 257 3.0 7.0 0.00 1.09 1.09 77 1014.4
20260903151305 82 236 5.0 9.0 0.00 1.09 1.09 77 1014.4
20260903145805 82 235 3.0 10.0 0.00 1.09 1.09 78 1014.4
20260903144305 80 248 4.0 10.0 0.00 1.09 1.09 79 1014.3
20260903142804 80 239 5.0 12.0 0.00 1.09 1.09 78 1014.0
20260903142306 80 249 6.0 13.0 0.00 1.09 1.09 78 1014.2
20260903140304 78 246 5.0 10.0 0.00 1.09 1.09 82 1014.2
20260903133804 76 223 2.0 6.0 0.00 1.09 1.09 87 1013.7
20260903133305 76 213 3.0 5.0 0.00 1.09 1.09 86 1013.6
20260903132306 76 219 3.0 10.0 0.00 1.09 1.09 87 1013.5
20260903131805 75 183 6.0 10.0 0.00 1.09 1.09 87 1013.4
20260903130804 75 238 6.0 12.0 0.00 1.09 1.09 87 1014.4
20260903130304 75 255 6.0 12.0 0.00 1.09 1.09 87 1014.7
20260903125805 75 233 8.0 15.0 0.00 1.09 1.09 87 1014.3
20260903125305 75 221 6.0 13.0 0.00 1.09 1.09 87 1014.3
20260903124805 75 231 7.0 14.0 0.00 1.09 1.09 87 1014.4
20260903124305 75 239 8.0 14.0 0.00 1.09 1.09 87 1014.6
20260903123805 75 232 9.0 14.0 0.00 1.09 1.09 88 1015.0
20260903121804 74 243 5.0 10.0 0.00 1.09 1.09 89 1015.1
20260903121305 74 243 5.0 12.0 0.00 1.09 1.09 88 1015.2
20260903120804 74 245 3.0 7.0 0.00 1.09 1.09 87 1015.1
20260903115804 74 245 3.0 8.0 0.00 1.09 1.09 86 1015.3
20260903115306 74 252 3.0 8.0 0.00 1.09 1.09 86 1015.3
20260903114805 75 255 5.0 10.0 0.00 1.09 1.09 86 1015.1
20260903114304 74 255 6.0 12.0 0.01 1.09 1.09 86 1015.1
20260903113305 74 248 6.0 12.0 0.01 1.09 1.09 88 1015.1
20260903112804 73 240 6.0 12.0 0.01 1.09 1.09 89 1014.9
20260903110804 73 228 4.0 9.0 0.05 1.09 1.09 90 1014.0
20260903110304 73 236 6.0 14.0 0.06 1.09 1.09 91 1014.3
20260903105805 72 236 9.0 14.0 0.07 1.09 1.09 91 1014.5
20260903105306 72 237 7.0 14.0 0.08 1.09 1.09 91 1014.6
20260903104806 72 233 7.0 12.0 0.09 1.09 1.09 92 1014.9
20260903104305 72 237 5.0 10.0 0.08 1.08 1.08 92 1015.0
20260903103804 72 242 3.0 9.0 0.08 1.08 1.08 92 1015.2
20260903102306 71 217 3.0 6.0 0.09 1.08 1.08 92 1015.1
20260903100305 72 257 3.0 10.0 0.05 1.03 1.03 92 1016.1
20260903095306 73 284 4.0 12.0 0.04 1.01 1.01 92 1016.8
20260903094804 74 280 4.0 12.0 0.03 1.00 1.00 93 1016.7
20260903092306 74 280 2.0 5.0 0.02 0.99 0.99 92 1015.5
20260903091805 74 273 2.0 7.0 0.01 0.98 0.98 93 1015.7
20260903091305 73 237 4.0 9.0 0.02 0.98 0.98 92 1015.7
20260903085306 74 227 2.0 6.0 0.01 0.97 0.97 93 1015.4
20260903083804 73 207 2.0 3.0 0.05 0.97 0.97 93 1015.0
20260903083304 73 209 0.0 5.0 0.07 0.97 0.97 93 1015.0
20260903082306 73 208 3.0 6.0 0.12 0.97 0.97 92 1014.7
20260903081805 73 207 2.0 3.0 0.17 0.97 0.97 92 1014.8
20260903081305 73 207 1.0 3.0 0.23 0.96 0.96 92 1014.9
20260903080304 73 189 0.0 3.0 0.51 0.96 0.96 92 1015.1
20260903074304 73 166 2.0 3.0 0.94 0.94 0.94 92 1015.5
20260903073304 73 295 0.0 3.0 0.90 0.90 0.90 92 1016.2
20260903071304 74 333 5.0 10.0 0.73 0.73 0.73 91 1017.3
20260903070804 74 293 3.0 7.0 0.65 0.65 0.65 91 1017.3
20260903064804 74 19 1.0 3.0 0.00 0.00 0.00 91 1016.2
20260903064304 74 19 0.0 1.0 0.00 0.00 0.00 91 1015.7
20260903063805 74 20 3.0 7.0 0.00 0.00 0.00 91 1015.9
20260903061804 75 0 10.0 14.0 0.00 0.00 0.00 91 1016.4
20260903060805 75 347 9.0 12.0 0.00 0.00 0.00 91 1016.2
20260903060304 75 349 4.0 6.0 0.00 0.00 0.00 91 1015.9
20260903055306 75 346 5.0 6.0 0.00 0.00 0.00 91 1015.9
20260903052804 75 123 0.0 0.0 0.00 0.00 0.00 91 1016.1
20260903052307 75 123 0.0 0.0 0.00 0.00 0.00 91 1016.3
20260903050804 75 123 0.0 0.0 0.00 0.00 0.00 91 1016.4
20260903045306 75 123 0.0 0.0 0.00 0.00 0.00 90 1016.6
20260903044804 75 123 0.0 0.0 0.00 0.00 0.00 90 1016.6
20260903044304 74 123 0.0 0.0 0.00 0.00 0.00 90 1016.8
20260903043804 75 123 0.0 0.0 0.00 0.00 0.00 90 1016.7
20260903043304 75 123 0.0 0.0 0.00 0.00 0.00 90 1016.7
20260903042804 75 123 0.0 0.0 0.00 0.00 0.00 90 1016.7
20260903042306 75 123 0.0 2.0 0.00 0.00 0.00 90 1016.8
20260903040836 75 115 1.0 2.0 0.00 0.00 0.00 90 1016.9
20260903035805 75 109 2.0 3.0 0.00 0.00 0.00 90 1016.8
20260903034304 75 131 2.0 5.0 0.00 0.00 0.00 90 1016.5
20260903033304 75 144 3.0 6.0 0.00 0.00 0.00 90 1016.4
20260903032804 74 143 2.0 6.0 0.00 0.00 0.00 90 1016.5
20260903030304 74 124 6.0 13.0 0.00 0.00 0.00 90 1016.7
20260903025306 74 109 5.0 12.0 0.00 0.00 0.00 90 1016.7
20260903023805 74 116 6.0 10.0 0.00 0.00 0.00 90 1016.6